Regional Weather Roundup
Issued by NWS

Home | Current Version | Previous Version | Graphics & Text | Print | Product List | Glossary On
Versions: 1 2 3 4 5 6 7 8 9 10 11 12 13 14 15 16 17 18 19 20 21 22 23 24 25 26 27
000
ASUS45 KPSR 022310
RWRAZ

ARIZONA HOURLY REGIONAL WEATHER ROUNDUP
NATIONAL WEATHER SERVICE PHOENIX AZ
400 PM MST MON MAY 02 2016

NOTE: FAIR INDICATES FEW OR NO CLOUDS BELOW 12,000 FEET WITH NO
SIGNIFICANT WEATHER AND/OR OBSTRUCTIONS TO VISIBILITY.

AZZ001>003-036-030000-
NORTHWEST ARIZONA

CITY           SKY/WX    TMP DP  RH WIND       PRES   REMARKS
BULLHEAD CITY  MOSUNNY   86  36  16 NW8G20    29.94F
KINGMAN        MOSUNNY   70  35  27 SE18      30.05F
$$

AZZ004>008-015-016-018-030000-
NORTH CENTRAL ARIZONA

CITY           SKY/WX    TMP DP  RH WIND       PRES   REMARKS
GRAND CANYON   PTSUNNY   56  31  38 VRB7      30.18F
PRESCOTT       CLOUDY    65  32  29 MISG      30.09F
FLAGSTAFF      PTSUNNY   50  40  68 E10       30.19S
PAGE           SUNNY     65  36  34 VRB3      30.13F
$$

AZZ009>014-017-030000-
NORTHEAST ARIZONA

CITY           SKY/WX    TMP DP  RH WIND       PRES   REMARKS
WINSLOW        MOSUNNY   64  36  35 VRB3      30.11F
SAINT JOHNS    PTSUNNY   57  43  59 NE7       30.12R
WINDOW ROCK    PTSUNNY   56  37  49 N13       30.18F
$$

AZZ023-030000-
GREATER PHOENIX AREA

CITY           SKY/WX    TMP DP  RH WIND       PRES   REMARKS
PHOENIX        MOSUNNY   86  33  15 SE8       29.88F
GLENDALE       MOSUNNY   84  34  16 CALM      29.91F
LUKE AFB       SUNNY     85  35  16 SW8       29.89F
DEER VALLEY    SUNNY     84  33  16 VRB6      29.91F
SCOTTSDALE     SUNNY     83  30  14 S8        29.92F
MESA-FALCON    MOSUNNY  N/A N/A N/A S7        29.88F
MESA-GATEWAY   MOSUNNY   84  34  16 VRB6      29.91F
CHANDLER       MOSUNNY   86  36  16 SE9       29.90F
$$

AZZ027-028-030000-
SOUTHWEST MARICOPA COUNTY AND PINAL COUNTY

CITY           SKY/WX    TMP DP  RH WIND       PRES   REMARKS
CASA GRANDE    SUNNY    N/A N/A N/A MISG        N/A
GILA BEND      MOSUNNY   87  34  15 NW10      29.87F
$$

AZZ503-504-507>509-030000-
SOUTHEAST ARIZONA

CITY           SKY/WX    TMP DP  RH WIND       PRES   REMARKS
TUCSON         SUNNY     84  27  12 E3        29.94F
DAVIS-MONTHAN  SUNNY     83  31  15 S5        29.92F
RYAN FIELD     SUNNY     82  30  15 NW6       29.93F
NOGALES        SUNNY     81  19  10 W8        29.97F
SIERRA VISTA   SUNNY     76  27  16 E9        30.03F
DOUGLAS        SUNNY     77  28  16 N3        30.01F
SAFFORD        SUNNY     77  29  17 S10G18    29.99F
$$

AZZ020-021-025-026-031-030000-
SOUTHWEST ARIZONA

CITY           SKY/WX    TMP DP  RH WIND       PRES   REMARKS
YUMA           MOSUNNY   88  38  17 VRB6      29.87F
$$

CAZ031-033-041-043-047-048-061-030000-
SOUTHERN CALIFORNIA

CITY           SKY/WX    TMP DP  RH WIND       PRES   REMARKS
DOWNTOWN L.A.  MOSUNNY   70  54  56 W9        29.95F
L.A. AIRPORT   MOSUNNY   65  53  65 W20       29.97F
SAN DIEGO      MOSUNNY   68  55  63 NW15      29.99F
BURBANK        MOSUNNY   81  41  24 S10       29.93F
ONTARIO        MOSUNNY   84  46  26 SW12      29.91F
RIVERSIDE      PTSUNNY   85  47  26 W13       29.91F
PALM SPRINGS   PTSUNNY   90  38  16 NE9       29.91F
EL CENTRO NAS  MOSUNNY   86  39  19 VRB3      29.89F
IMPERIAL       SUNNY     88  40  18 W5        29.87F
BLYTHE         SUNNY     88  38  17 VRB3G22   29.89F
NEEDLES        PTSUNNY   86  39  19 E17G23    29.93F
$$

NVZ020-UTZ003-030000-
SOUTHERN NEVADA-UTAH

CITY           SKY/WX    TMP DP  RH WIND       PRES   REMARKS
LAS VEGAS      MOSUNNY   79  31  17 CALM      29.97F
SALT LAKE CITY MOSUNNY   69  29  22 NW12      30.15S
$$

NMZ009-TXZ055-030000-
NEW MEXICO-WEST TEXAS

CITY           SKY/WX    TMP DP  RH WIND       PRES   REMARKS
ALBUQUERQUE    MOSUNNY   62  31  31 W8        30.15F
EL PASO        MOSUNNY   72  31  22 E10       30.07F
$$


........................KEY........................
SKY/WX - SKY CONDITION/WEATHER
TMP    - TEMPERATURE IN FAHRENHEIT
DP     - DEW POINT IN FAHRENHEIT
RH     - RELATIVE HUMIDITY IN PERCENT
WIND   - DIRECTION AND SPEED IN MILES PER HOUR (MPH)
VRB    - VARIABLE WIND DIRECTION
PRES   - MEAN SEA LEVEL PRESSURE IN INCHES OF MERCURY
         F - FALLING PRESSURE   R - RISING PRESSURE
         S - STEADY PRESSURE
VSB    - VISIBILITY IN MILES
HX     - HEAT INDEX IN FAHRENHEIT
WCI    - WIND CHILL INDEX IN FAHRENHEIT
TC     - TEMPERATURE IN CELSIUS WHICH IS ALSO KNOWN AS
         TEMPERATURE IN CENTIGRADE
AFB    - AIR FORCE BASE
         LUKE AFB IS LUKE AIR FORCE BASE
         DAVIS-MONTHAN IS DAVIS-MONTHAN AIR FORCE BASE
NAS    - NAVAL AIR STATION
         EL CENTRO NAS IS EL CENTRO NAVAL AIR STATION
N/A    - NOT AVAILABLE





USA.gov is the U.S. government's official web portal to all federal, state and local government web resources and services.